Content
SEND FEEDBACK

Daily
Averages
Monthly
Summary
France

PARIS, FRANCE


Home > Europe > France
Elevation: 315 feet     Latitude: 48 44N     Longitude: 002 24E

WEATHER
 
SELECT A DAY
Number of Records: 318,923;   Date Range: 7/1/96 - 7/11/14
 
SHARE

PRINT THIS DATA

[ ← Previous Day ]
WEATHER ALMANAC - JANUARY 23, 2013
[ Next Day → ]
[ °C ]   °F
Weather ElementAverageHighLow
Temperature36.2 °F37.4 °F (10:30 am)33.8 °F (11:30 pm)
Dewpoint34.6 °F36 °F (1:00 pm)32 °F (7:00 pm)
Humidity94 %100 % (12:30 am)81 % (7:00 pm)
Barometer29.70 in29.78 in (7:00 pm)29.62 in (12:30 am)
Wind Speed2.6 mph6.9 mph (5:30 pm)
Weather ElementAverage
Visibility4.2 mi
Wind DirectionSE (140.4 °)

Weather ElementTotal
Precipitation---
Heating Degree Days29.4 (Base 65)
Averaged from 51 records on January 23, 2013
WEATHER CONDITIONS BREAKOUT
WIND DIRECTION BREAKOUT
WEATHER BY HOUR - JANUARY 23, 2013
[ °C ]   °F
Local TimeTemperatureDewpointHumidityBarometerVisibilityWind DirectionWind SpeedGust SpeedPrecipitationEventsConditions
12:30 AM35.6 °F35.6 °F100 %29.62 in3.7 miSE (140°)2.3 mphMostly Cloudy
1:00 AM36.0 °F35.0 °F97 %29.65 in4.0 miSE (140°)1.2 mphPartly Cloudy
1:00 AM35.6 °F35.6 °F100 %29.62 in3.7 miVariable1.2 mphOvercast
1:30 AM35.6 °F35.6 °F100 %29.62 in3.7 miSE (140°)2.3 mphOvercast
2:00 AM35.6 °F35.6 °F100 %29.62 in3.7 miCalmMostly Cloudy
2:30 AM35.6 °F35.6 °F100 %29.62 in5.0 miCalmMostly Cloudy
3:00 AM35.6 °F35.6 °F100 %29.62 in3.7 miEast (90°)1.2 mphMostly Cloudy
3:30 AM35.6 °F35.6 °F100 %29.62 in3.7 miCalmMostly Cloudy
4:00 AM35.6 °F35.6 °F100 %29.65 in3.7 miCalmMostly Cloudy
4:30 AM35.6 °F35.6 °F100 %29.65 in5.0 miSSE (160°)1.2 mphMostly Cloudy
5:00 AM35.6 °F35.6 °F100 %29.65 in5.0 miSouth (170°)2.3 mphMostly Cloudy
5:30 AM35.6 °F33.8 °F93 %29.65 in2.5 miCalmMostly Cloudy
6:00 AM35.6 °F33.8 °F93 %29.65 in1.1 miCalmFogMostly Cloudy
6:30 AM35.6 °F33.8 °F93 %29.65 in0.5 miCalmFogPatches of Fog
7:00 AM35.0 °F34.0 °F96 %29.69 in0.0 miCalmFogPatches of Fog
7:00 AM35.6 °F33.8 °F93 %29.65 in0.5 miCalmFogPatches of Fog
7:30 AM35.6 °F33.8 °F93 %29.68 in1.1 miCalmOvercast
8:00 AM35.6 °F35.6 °F100 %29.68 in1.4 miCalmFogMostly Cloudy
8:30 AM35.6 °F35.6 °F100 %29.68 in0.9 miSE (140°)1.2 mphFogOvercast
9:00 AM35.6 °F35.6 °F100 %29.71 in1.1 miCalmOvercast
9:30 AM35.6 °F35.6 °F100 %29.71 in1.1 miCalmFogOvercast
10:00 AM35.6 °F35.6 °F100 %29.71 in1.2 miCalmFogOvercast
10:30 AM37.4 °F35.6 °F93 %29.71 in1.4 miSW (230°)1.2 mphFogOvercast
11:00 AM37.4 °F35.6 °F93 %29.74 in0.5 miVariable3.5 mphOvercast
11:30 AM37.4 °F35.6 °F93 %29.74 in1.6 miWNW (290°)3.5 mphOvercast
12:00 PM37.4 °F35.6 °F93 %29.74 in1.9 miVariable3.5 mphOvercast
12:30 PM37.4 °F35.6 °F93 %29.74 in2.5 miWest (260°)5.8 mphMostly Cloudy
1:00 PM37.0 °F36.0 °F92 %29.76 in4.0 miWest (260°)3.5 mphPartly Cloudy
1:00 PM37.4 °F35.6 °F93 %29.74 in4.3 miWest (260°)3.5 mphOvercast
1:30 PM37.4 °F35.6 °F93 %29.74 in5.0 miSW (230°)5.8 mphOvercast
2:00 PM37.4 °F35.6 °F93 %29.74 in5.0 miWSW (240°)4.6 mphOvercast
2:30 PM37.4 °F35.6 °F93 %29.74 in6.2 miWSW (250°)4.6 mphMostly Cloudy
3:00 PM37.4 °F35.6 °F93 %29.74 in6.2 miWest (260°)4.6 mphMostly Cloudy
3:30 PM37.4 °F35.6 °F93 %29.74 in6.2 miNW (320°)3.5 mphMostly Cloudy
4:00 PM37.4 °F35.6 °F93 %29.74 in6.2 miWNW (290°)4.6 mphMostly Cloudy
4:30 PM37.4 °F35.6 °F93 %29.74 in6.2 miWest (280°)5.8 mphMostly Cloudy
5:00 PM35.6 °F33.8 °F93 %29.74 in6.2 miWNW (290°)4.6 mphOvercast
5:30 PM35.6 °F33.8 °F93 %29.74 in6.2 miWest (280°)6.9 mphOvercast
6:00 PM35.6 °F33.8 °F93 %29.74 in6.2 miVariable3.5 mphOvercast
6:30 PM35.6 °F33.8 °F93 %29.74 in6.2 miSSE (160°)3.5 mphOvercast
7:00 PM36.0 °F32.0 °F81 %29.78 in12.0 miSW (220°)3.5 mphOvercast
7:00 PM35.6 °F32.0 °F87 %29.74 in6.2 miSW (220°)3.5 mphOvercast
7:30 PM35.6 °F32.0 °F87 %29.77 in6.2 miVariable3.5 mphOvercast
8:00 PM37.4 °F32.0 °F81 %29.74 in6.2 miWNW (290°)4.6 mphOvercast
8:30 PM37.4 °F32.0 °F81 %29.74 in6.2 miSSW (210°)3.5 mphOvercast
9:00 PM35.6 °F32.0 °F87 %29.74 in6.2 miSW (220°)5.8 mphOvercast
9:30 PM37.4 °F33.8 °F87 %29.74 in6.2 miSSW (200°)4.6 mphOvercast
10:00 PM35.6 °F33.8 °F93 %29.74 in6.2 miSouth (190°)3.5 mphRainLight Rain
10:30 PM35.6 °F33.8 °F93 %29.74 in6.2 miSouth (190°)4.6 mphLight Drizzle
11:00 PM35.6 °F33.8 °F93 %29.74 in6.2 miSouth (190°)4.6 mphMostly Cloudy
11:30 PM33.8 °F32.0 °F93 %29.74 in6.2 miSSW (210°)3.5 mphMostly Cloudy
Hourly data recorded from LFPO, located miles away from Paris, France







STORIES FROM OUR PARTNERS